Notices

What's New in latest Release from April 7th, 2021:

- Updated Glossary, including Speed of Maximum Gust, and Total Hourly Precipitation

- Updated national and regional climate services offices contacts and prices information

- Addition of station inventory lists for 1981-2010, 1971-2000, and 1961-1990 Normals.

If you haven't already, please take our survey and provide feedback about our website: https://eccc.sondage-survey.ca/f/LanguageSelection.aspx?s=442ca660-fcf1-47c0-95a9-59707d6fd709

Hourly Data Report for December 05, 2019

CARBERRY CS
MANITOBA
Current Station Operator: ECCC - MSC

49°54'20.900" N
99°21'26.800" W
383.50 m
5010547
71170
WZE

Download Data

Hourly Data (December 2019)
Hourly Data Report for December 5, 2019
TIME
LST
Temp Definition
°C
Dew Point Definition
°C
Rel Hum Definition
%
Precip. Amount Definition
mm

Wind Dir Definition
10's deg

Wind Spd Definition
km/h
Visibility Definition
km
Stn Press Definition
kPa
Hmdx Definition


Wind Chill Definition


Weather Definition


00:00 -2.9 -4.3 90 0.0 36 3   96.29   -4 LegendNANA
01:00 -1.9 -4.5 82 0.0 1 18   96.29   -7 LegendNANA
02:00 -2.7 -5.3 82 0.0 2 24   96.35   -9 LegendNANA
03:00 -3.4 -4.4 92 0.0 2 21   96.44   -10 LegendNANA
04:00 -3.7 -4.2 96 0.0 2 15   96.51   -9 LegendNANA
05:00 -4.5 -5.5 93 0.0 2 16   96.59   -10 LegendNANA
06:00 -5.2 -6.4 91 0.0 36 20   96.68   -12 LegendNANA
07:00 -5.9 -6.7 94 0.0 35 14   96.80   -11 LegendNANA
08:00 -5.9 -7.1 91 0.0 36 15   96.88   -12 LegendNANA
09:00 -7.0 -8.4 90 0.0 34 11   97.04   -12 LegendNANA
10:00 -6.4 -8.6 84 0.0 34 10   97.17   -11 LegendNANA
11:00 -7.2 -9.5 84 0.0 1 13   97.27   -13 LegendNANA
12:00 -6.9 -9.2 83 0.0 2 11   97.28   -12 LegendNANA
13:00 -7.0 -9.6 82 0.0 35 6   97.30   -10 LegendNANA
14:00 -7.2 -9.9 81 0.0 36 7   97.31   -11 LegendNANA
15:00 -7.4 -10.1 81 0.0 3 9   97.40   -12 LegendNANA
16:00 -7.5 -10.2 80 0.0 3 6   97.50   -11 LegendNANA
17:00 -7.7 -10.3 81 0.0 34 4   97.59   -10 LegendNANA
18:00 -7.9 -10.2 83 0.0 35 3   97.67   -9 LegendNANA
19:00 -9.5 -12.5 79 0.0 28 13   97.73   -16 LegendNANA
20:00 -10.6 -13.3 81 0.0 27 11   97.82   -16 LegendNANA
21:00 -12.0 -14.5 82 0.0 25 16   97.87   -19 LegendNANA
22:00 -12.3 -14.9 81 0.0 27 13   97.88   -19 LegendNANA
23:00 -12.5 -15.1 81 0.2 26 8   97.92   -17 LegendNANA

Notes on Data Quality.

Legend

  • E = Estimated
  • M = Missing
  • NA = Not Available*
  • [empty] = Indicates an unobserved value
Date modified: